Voltar ao catálogo

UMBRA-11

AtivoCiênciaSSO
NORAD 66748·PAYLOAD·🇺🇸 United States

Lançado Nov 28, 2025 de Vandenberg Space Force Base

Loading…

Próximas Passagens (próximas 24 horas)

TLE

AtualizadoSource: Space-Track

Época: Sep 14, 2026, 14:58 UTC

1 66748U 25276CL  26257.62364230  .00018843  00000-0  64987-3 0  9992
2 66748  97.4125 331.8809 0002125  48.6519 311.4904 15.30033901 44157

Acompanhe UMBRA-11 em tempo real com AllMySat

Download on the App Store